Station PCLF1 - 8729840 - Pensacola, FL Image indicating link to RSS feed of recent meteorological observations for station PCLF1


Conditions at PCLF1 as of
(11:48 pm CDT on 04/14/2024)
0448 GMT on 04/15/2024:
     

Click on the graph icon in the table below to see a time series plot of the last five days of that observation.

5-day plot - Wind Direction Wind Direction (WDIR): S ( 170 deg true )
5-day plot - Wind Speed Wind Speed (WSPD): 4.1 kts
5-day plot - Wind Gust Wind Gust (GST): 5.1 kts
5-day plot - Atmospheric Pressure Atmospheric Pressure (PRES):30.11 in
5-day plot - Air Temperature Air Temperature (ATMP): 68.9 °F
5-day plot - Wind Speed at 10 Meters Wind Speed at 10 meters (WSPD10M): 5.8 kts
5-day plot - Wind Speed at 20 Meters Wind Speed at 20 meters (WSPD20M): 5.8 kts
5-day plot -  Wind Speed, Wind Gust and Atmospheric Pressure Combined plot of Wind Speed, Gust, and Air Pressure
NOS Water Level Observation Network Water Level
Previous observations
TIME
(CDT)
5-day plot - Wind Direction
WDIR
 
5-day plot - Wind Speed
WSPD
kts
5-day plot - Wind Gust
GST
kts
5-day plot - Wave Height
WVHT
ft
5-day plot - Dominant Wave Period
DPD
sec
5-day plot - Average Wave Period
APD
sec
5-day plot - Mean Wave Direction
MWD
 
5-day plot - Atmospheric Pressure
PRES
in
5-day plot - Pressure Tendency
PTDY
in
5-day plot - Air Temperature
ATMP
°F
5-day plot - Water Temperature
WTMP
°F
5-day plot - Dew Point
DEWP
°F
5-day plot - Salinity
SAL
psu
5-day plot - Visibility
VIS
nmi
5-day plot - Tide (above MLLW)
TIDE
ft
2024-04-14 11:42 pm S 4.1 5.1----30.12- 69.1-----
2024-04-14 11:36 pm S 4.1 5.1----30.12- 69.1-----
2024-04-14 11:30 pm S 2.9 5.1----30.12- 69.1-----
2024-04-14 11:24 pm S 4.1 4.1----30.12- 69.1-----
2024-04-14 11:18 pm S 2.9 4.1----30.13- 69.1-----
2024-04-14 11:12 pm S 2.9 4.1----30.13- 69.1-----
2024-04-14 11:06 pm S 1.9 4.1----30.13- 69.1-----
2024-04-14 11:00 pm S 2.9 4.1----30.13+0.01 69.1-----
2024-04-14 10:54 pm S 2.9 4.1----30.13- 68.9-----
2024-04-14 10:48 pmSSE 2.9 2.9----30.13- 68.7-----
2024-04-14 10:42 pmSSE 1.9 4.1----30.13- 68.9-----
2024-04-14 10:36 pmSSE 2.9 2.9----30.13- 68.9-----
2024-04-14 10:30 pmSSE 1.9 2.9----30.13- 68.9-----
2024-04-14 10:24 pm- 0.0 4.1----30.13- 68.9-----
2024-04-14 10:18 pmSSE 2.9 4.1----30.13- 68.9-----
2024-04-14 10:12 pm S 2.9 4.1----30.13- 68.9-----
2024-04-14 10:06 pm S 1.9 4.1----30.13- 69.1-----
2024-04-14 10:00 pmSSE 2.9 4.1----30.13+0.01 69.3-----
2024-04-14 09:54 pmSSE 2.9 5.1----30.13- 69.4-----
2024-04-14 09:48 pm S 4.1 5.1----30.13- 69.6-----
2024-04-14 09:42 pm S 4.1 6.0----30.13- 69.8-----
2024-04-14 09:36 pm S 5.1 6.0----30.13- 69.6-----
2024-04-14 09:30 pm S 5.1 7.0----30.13- 69.8-----
2024-04-14 09:24 pm S 5.1 7.0----30.12- 69.8-----
2024-04-14 09:18 pm S 5.1 8.0----30.13- 69.8-----
2024-04-14 09:12 pm S 6.0 8.0----30.12- 70.0-----
2024-04-14 09:06 pm S 7.0 8.0----30.12- 70.0-----
2024-04-14 09:00 pm S 6.0 8.9----30.12+0.00 70.0-----
2024-04-14 08:54 pm S 6.0 8.0----30.12- 69.8-----
2024-04-14 08:48 pm S 7.0 8.9----30.12- 70.0-----
2024-04-14 08:42 pm S 7.0 8.0----30.12- 70.0-----
2024-04-14 08:36 pm S 6.0 8.0----30.12- 70.2-----
2024-04-14 08:30 pm S 6.0 8.0----30.12- 70.2-----
2024-04-14 08:24 pm S 6.0 7.0----30.12- 70.0-----
2024-04-14 08:18 pm S 5.1 7.0----30.12- 70.0-----
2024-04-14 08:12 pm S 5.1 7.0----30.12- 70.3-----
2024-04-14 08:06 pm S 6.0 8.0----30.12- 70.3-----
2024-04-14 08:00 pm S 6.0 7.0----30.12-0.01 70.3-----
2024-04-14 07:54 pm S 6.0 8.0----30.12- 70.3-----
2024-04-14 07:48 pm S 6.0 8.0----30.11-------
2024-04-14 07:42 pm S 6.0 7.0----30.11-------
2024-04-14 07:36 pmSSW 5.1 7.0----30.12-------
2024-04-14 07:30 pm-------30.12- 70.3-----
2024-04-14 07:24 pm-------30.12- 70.3-----
2024-04-14 07:18 pmSSW 5.1 6.0------ 70.3-----
2024-04-14 07:12 pmSSW 5.1 7.0------ 70.7-----
2024-04-14 07:06 pm S 6.0 7.0------ 70.9-----
2024-04-14 07:00 pm S 5.1 6.0----30.11-0.03 71.1-----
2024-04-14 06:54 pm S 6.0 7.0----30.11- 71.2-----
2024-04-14 06:48 pmSSW 4.1 6.0----30.12- 71.2-----
2024-04-14 06:42 pmSSW 5.1 6.0----30.12- 71.8-----
2024-04-14 06:36 pm S 5.1 6.0----30.12- 72.3-----
2024-04-14 06:30 pm S 5.1 6.0----30.12- 72.7-----
2024-04-14 06:24 pm S 5.1 6.0----30.12- 73.0-----
2024-04-14 06:00 pmSSW 2.9 4.1----30.13-0.04------
2024-04-14 05:54 pmSSW 2.9 5.1----30.13-------
2024-04-14 05:48 pmSSW 4.1 5.1----30.13- 73.9-----
2024-04-14 05:42 pmSSW 4.1 5.1----30.13- 73.6-----
2024-04-14 05:36 pmSSW 4.1 5.1----30.12- 73.6-----
2024-04-14 05:30 pm S 5.1 6.0----30.12- 73.6-----
2024-04-14 05:24 pmSSW 4.1 5.1----30.13- 73.4-----
2024-04-14 05:18 pmSSW 5.1 6.0----30.13- 73.2-----
2024-04-14 05:12 pmSSW 5.1 6.0----30.13- 73.4-----
2024-04-14 05:06 pmSSW 5.1 6.0----30.13- 73.0-----
2024-04-14 05:00 pmSSW 5.1 6.0----30.13-0.06 73.0-----
2024-04-14 04:54 pmSSW 5.1 6.0----30.13- 73.4-----
2024-04-14 04:48 pmSSW 5.1 6.0----30.13-------
2024-04-14 04:42 pmSSW 5.1 6.0----30.13-------
2024-04-14 04:36 pmSSW 4.1 6.0----30.14-------
2024-04-14 04:30 pmSSW 5.1 6.0----30.13-------
2024-04-14 04:24 pmSSW 5.1 7.0----30.14-------
2024-04-14 04:18 pmSSW 5.1 6.0----30.14- 73.6-----
2024-04-14 04:12 pmSSW 5.1 7.0----30.14- 72.5-----
2024-04-14 04:06 pmSSW 5.1 7.0----30.15- 72.7-----
2024-04-14 04:00 pmSSW 6.0 7.0----30.15-0.05 72.7-----
2024-04-14 03:54 pmSSW 6.0 7.0----30.14- 73.6-----
2024-04-14 03:48 pmSSW 5.1 7.0----30.15- 72.3-----
2024-04-14 03:42 pmSSW 5.1 7.0----30.15- 71.8-----
2024-04-14 03:36 pmSSW 6.0 8.9----30.15- 71.6-----
2024-04-14 03:30 pmSSW 6.0 8.0----30.15- 71.8-----
2024-04-14 03:24 pmSSW 7.0 8.9----30.15- 72.1-----
2024-04-14 03:18 pmSSW 7.0 8.9----30.15- 72.0-----
2024-04-14 03:12 pm S 8.0 9.9----30.15- 72.9-----
2024-04-14 03:06 pmSSW 7.0 9.9----30.16- 73.0-----
2024-04-14 03:00 pmSSW 8.0 9.9----30.16-0.04 72.9-----
2024-04-14 02:54 pm S 7.0 9.9----30.16- 73.0-----
2024-04-14 02:48 pmSSW 7.0 8.9----30.17- 72.5-----
2024-04-14 02:42 pmSSW 7.0 9.9----30.18- 72.5-----
2024-04-14 02:36 pmSSW 7.0 9.9----30.18- 72.5-----
2024-04-14 02:30 pmSSW 7.0 8.9----30.18- 72.3-----
2024-04-14 02:24 pmSSW 8.0 8.9----30.18- 72.7-----
2024-04-14 02:18 pmSSW 8.0 8.9----30.18- 72.5-----
2024-04-14 02:12 pmSSW 8.0 8.9----30.18- 73.6-----
2024-04-14 02:06 pmSSW 7.0 8.9----30.18- 73.6-----
2024-04-14 02:00 pmSSW 7.0 9.9----30.19-0.04------
2024-04-14 01:54 pmSSW 7.0 8.9----30.19-------
2024-04-14 01:48 pmSSW 8.0 8.9----30.19- 73.0-----
2024-04-14 01:42 pmSSW 7.0 9.9----30.19- 73.0-----
2024-04-14 01:36 pmSSW 6.0 8.0----30.19- 72.5-----
2024-04-14 01:30 pmSSW 6.0 8.9----30.19- 72.5-----
2024-04-14 01:24 pmSSW 6.0 8.9----30.20- 72.7-----
2024-04-14 01:18 pmSSW 7.0 8.9----30.20- 72.5-----
2024-04-14 01:12 pmSSW 7.0 8.9----30.19- 72.3-----
2024-04-14 01:06 pm S 7.0 8.9----30.20- 72.7-----
2024-04-14 01:00 pm S 7.0 8.9----30.20-0.02 72.7-----
2024-04-14 12:54 pm S 7.0 8.0----30.20- 72.3-----
2024-04-14 12:48 pmSSW 7.0 8.9----30.21- 72.3-----
2024-04-14 12:42 pm S 6.0 8.0----30.21- 72.3-----
2024-04-14 12:36 pm S 7.0 8.0----30.21- 72.3-----
2024-04-14 12:30 pmSSW 6.0 7.0----30.21- 72.3-----
2024-04-14 12:24 pmSSW 6.0 7.0----30.21- 72.3-----
2024-04-14 12:18 pmSSW 6.0 7.0----30.21- 71.8-----
2024-04-14 12:12 pm S 6.0 8.0----30.21- 72.1-----
2024-04-14 12:06 pmSSW 6.0 7.0----30.21- 72.1-----
2024-04-14 12:00 pm S 6.0 8.0----30.21-0.01 72.1-----
2024-04-14 11:54 am S 6.0 7.0----30.21- 72.1-----
2024-04-14 11:48 am S 6.0 8.0----30.21-------
2024-04-14 11:42 am S 7.0 8.0----30.21-------
2024-04-14 11:36 am S 6.0 8.9----30.21-------
2024-04-14 11:30 am S 6.0 8.9----30.22-------
2024-04-14 11:24 am S 7.0 8.9----30.22-------
2024-04-14 11:18 am S 7.0 8.0----30.22- 72.1-----
2024-04-14 11:12 am S 6.0 8.0----30.22- 72.1-----
2024-04-14 11:06 am S 6.0 8.0----30.22- 71.8-----
2024-04-14 11:00 am S 6.0 8.0----30.22+0.01 72.0-----
2024-04-14 10:54 am S 7.0 8.9----30.22- 71.6-----
2024-04-14 10:48 am S 7.0 8.0----30.22- 71.6-----
2024-04-14 10:42 am S 6.0 8.0----30.22- 72.0-----
2024-04-14 10:36 am S 6.0 7.0----30.22- 72.0-----
2024-04-14 10:30 am S 5.1 6.0----30.22-------
2024-04-14 10:24 am S 5.1 6.0----30.23-------
2024-04-14 10:18 am S 5.1 6.0----30.22-------
2024-04-14 10:12 am S 5.1 6.0----30.22-------
2024-04-14 10:06 am S 4.1 4.1----30.22-------
2024-04-14 10:00 am S 2.9 5.1----30.22+0.02 70.2-----
2024-04-14 09:54 am S 4.1 5.1----30.22- 69.6-----
2024-04-14 09:48 am S 4.1 5.1----30.22- 69.1-----
2024-04-14 09:42 am S 4.1 4.1----30.22- 69.1-----
2024-04-14 09:36 am S 2.9 5.1----30.22- 69.6-----
2024-04-14 09:30 am S 2.9 4.1----30.22- 69.8-----
2024-04-14 09:24 am S 2.9 2.9----30.22- 70.2-----
2024-04-14 09:18 am S 1.9 1.9----30.22- 70.3-----
2024-04-14 09:12 am S 1.0 1.9----30.22- 69.6-----
2024-04-14 09:06 amSSE 1.9 1.9----30.22- 69.1-----
2024-04-14 09:00 am S 1.9 4.1----30.22+0.04------
2024-04-14 08:54 am S 1.9 2.9----30.22-------
2024-04-14 08:48 am- 0.0 0.0----30.22- 70.7-----
2024-04-14 08:42 am- 0.0 1.0----30.22- 70.5-----
2024-04-14 08:36 am- 0.0 1.0----30.22- 69.6-----
2024-04-14 08:30 am- 0.0 1.0----30.22-------
2024-04-14 08:24 am- 0.0 1.0----30.21-------
2024-04-14 08:18 am- 0.0 0.0----30.21- 69.6-----
2024-04-14 08:12 am- 0.0 1.0----30.21- 69.3-----
2024-04-14 08:06 am- 0.0 0.0----30.21- 68.7-----
2024-04-14 08:00 am- 0.0 0.0----30.21- 66.9-----
2024-04-14 07:54 am- 0.0 1.0----30.21- 65.3-----
2024-04-14 07:48 am-------30.21- 64.2-----
2024-04-14 07:42 am-------30.21- 64.0-----
2024-04-14 07:36 am-------30.20- 63.7-----
2024-04-14 07:30 am- 0.0 1.0----30.20-------
2024-04-14 07:24 am- 0.0 1.9----30.20-------
2024-04-14 07:18 amNNE 1.0 1.9----30.20- 62.2-----
2024-04-14 07:12 am- 0.0 1.0----30.20- 62.1-----
2024-04-14 07:06 amNNE 1.9 1.9----30.20- 61.7-----
2024-04-14 07:00 amNNE 1.0 1.9----30.20+0.03------
2024-04-14 06:54 am- 0.0 1.0----30.19-------
2024-04-14 06:48 amNNE 1.0 1.9----30.20-------
2024-04-14 06:42 am- 0.0 1.0----30.20-------
2024-04-14 06:36 am- 0.0 0.0----30.19-------
2024-04-14 06:30 am- 0.0 0.0----30.19- 61.3-----
2024-04-14 06:24 am- 0.0 1.9----30.19- 61.2-----
2024-04-14 06:18 amNNE 1.9 1.9----30.18-------
2024-04-14 06:12 amNNE 1.9 1.9----30.18-------
2024-04-14 06:06 am N 1.9 1.9----30.18-------
2024-04-14 06:00 am- 0.0 1.0----30.18+0.00 61.9-----
2024-04-14 05:54 am- 0.0 1.0----30.18- 62.8-----
2024-04-14 05:48 am- 0.0 1.9----30.18-------
2024-04-14 05:42 am NW 2.9 5.1----30.18-------
2024-04-14 05:36 amWNW 2.9 4.1----30.19-------
2024-04-14 05:30 am NW 2.9 5.1----30.18- 63.3-----
2024-04-14 05:24 am NW 4.1 5.1----30.18- 63.1-----
2024-04-14 05:18 am NW 2.9 4.1----30.18- 62.8-----
2024-04-14 05:12 amWNW 4.1 5.1----30.18- 63.0-----
2024-04-14 05:06 am NW 2.9 4.1----30.17- 63.0-----
2024-04-14 05:00 am W 1.0 1.9------ 63.1-----
2024-04-14 04:54 amWNW 1.0 1.9------ 62.8-----
2024-04-14 04:48 am- 0.0 1.0------ 62.8-----
2024-04-14 04:42 amWNW 1.0 1.9------ 62.8-----
2024-04-14 04:36 amWNW 1.0 2.9------ 62.6-----
2024-04-14 04:30 am- 0.0 1.0----30.16-------
2024-04-14 04:24 am- 0.0 2.9----30.16-------
2024-04-14 04:18 am W 1.0 2.9----30.17- 63.3-----
2024-04-14 04:12 am W 1.9 2.9----30.17- 63.1-----
2024-04-14 04:06 am- 0.0 1.9----30.17- 63.0-----
2024-04-14 04:00 am NW 1.9 2.9----30.17-0.03 62.4-----
2024-04-14 03:54 am NW 1.9 4.1----30.18- 62.2-----
2024-04-14 03:48 amWNW 1.0 1.9----30.18- 62.4-----
2024-04-14 03:42 am- 0.0 1.0----30.18- 62.4-----
2024-04-14 03:36 amWNW 1.0 1.9----30.17- 62.1-----
2024-04-14 03:30 am- 0.0 0.0----30.17- 62.2-----
2024-04-14 03:24 am- 0.0 1.0----30.17- 62.4-----
2024-04-14 03:18 am- 0.0 1.0----30.17- 62.6-----
2024-04-14 03:12 am- 0.0 1.9----30.17- 62.6-----
2024-04-14 03:06 am- 0.0 1.9----30.17- 62.8-----
2024-04-14 03:00 am- 0.0 1.9----30.18-0.03 63.1-----
2024-04-14 02:54 am- 0.0 1.9----30.18- 62.8-----
2024-04-14 02:48 am NW 1.0 1.9----30.18- 62.6-----
2024-04-14 02:42 amWNW 1.0 2.9----30.18- 63.0-----
2024-04-14 02:36 am- 0.0 1.9----30.18- 63.0-----
2024-04-14 02:30 am- 0.0 2.9----30.17- 62.8-----
2024-04-14 02:24 am W 1.0 1.9----30.17- 63.1-----
2024-04-14 02:18 am- 0.0 0.0----30.17- 63.0-----
2024-04-14 02:12 am- 0.0 1.9----30.17- 63.1-----
2024-04-14 02:06 am- 0.0 1.9----30.18- 63.1-----
2024-04-14 02:00 am W 1.0 1.9----30.18-0.05 63.1-----
2024-04-14 01:54 am- 0.0 1.9----30.18- 63.0-----
2024-04-14 01:48 am- 0.0 0.0----30.18- 63.3-----
2024-04-14 01:42 am- 0.0 1.9----30.18- 63.3-----
2024-04-14 01:36 am- 0.0 1.0----30.18- 63.5-----
2024-04-14 01:30 am- 0.0 1.0----30.19- 63.9-----
2024-04-14 01:24 am- 0.0 1.9----30.19- 63.9-----
2024-04-14 01:18 am- 0.0 1.9----30.19- 63.7-----
2024-04-14 01:12 amSSW 1.0 2.9----30.19- 64.0-----
2024-04-14 01:06 am- 0.0 1.0----30.19- 63.9-----
2024-04-14 01:00 am- 0.0 2.9----30.20-0.03 64.0-----
2024-04-14 12:54 am W 1.0 2.9----30.20- 63.7-----
2024-04-14 12:48 amWNW 1.9 2.9----30.20- 63.9-----
2024-04-14 12:42 amWSW 1.0 2.9----30.20- 64.2-----
2024-04-14 12:36 am SW 1.0 2.9----30.21- 64.2-----
2024-04-14 12:30 am W 1.9 4.1----30.21- 64.2-----
2024-04-14 12:24 amWNW 1.9 4.1----30.20- 64.2-----
2024-04-14 12:18 am W 2.9 4.1----30.20- 64.6-----
2024-04-14 12:12 am W 2.9 4.1----30.20- 64.6-----
2024-04-14 12:06 amWNW 1.9 4.1----30.21- 64.8-----
2024-04-14 12:00 am W 2.9 6.0----30.21-0.01 64.9-----
2024-04-13 11:54 pm W 4.1 6.0----30.21- 65.1-----